When you browse on this site, cookies collect data to enhance your experience and personalize the content and advertising you see.
Visit our Privacy Policy to learn more. By continuing to use the site, you agree to this use of cookies and data.

Hourly Weather Aylesbury

Today, 11 August, Tuesday

Time Temperature Precipitation Wind Pressure Humidity
00:00 +23°C° 0 mm 1 mps 753 mmHg 76%
01:00 +23°C° 0 mm 1 mps 753 mmHg 77%
02:00 +22°C° 0 mm 1 mps 752 mmHg 78%
03:00 +22°C° 0 mm 1 mps 752 mmHg 80%
04:00 +22°C° 0 mm 1 mps 752 mmHg 80%
05:00 +22°C° 0 mm 1 mps 752 mmHg 80%
06:00 +23°C° 0 mm 1 mps 753 mmHg 74%
07:00 +24°C° 0 mm 1 mps 753 mmHg 68%
08:00 +26°C° 0 mm 1 mps 753 mmHg 62%
09:00 +28°C° 0 mm 1 mps 753 mmHg 56%
10:00 +29°C° 0 mm 1 mps 753 mmHg 51%
11:00 +30°C° 0 mm 1 mps 753 mmHg 47%
12:00 +32°C° 0 mm 2 mps 753 mmHg 42%
13:00 +32°C° 0 mm 1 mps 753 mmHg 41%
14:00 +33°C° 0 mm 1 mps 753 mmHg 39%
15:00 +33°C° 0 mm 1 mps 752 mmHg 37%
16:00 +33°C° 0 mm 1 mps 752 mmHg 40%
17:00 +32°C° 0 mm 1 mps 752 mmHg 44%
18:00 +32°C° 0 mm 1 mps 752 mmHg 47%
19:00 +30°C° 0.1 mm 1 mps 752 mmHg 52%
20:00 +28°C° 0.1 mm 1 mps 752 mmHg 57%
21:00 +26°C° 0.1 mm 1 mps 752 mmHg 61%
22:00 +25°C° 0.1 mm 1 mps 752 mmHg 64%
23:00 +25°C° 0.1 mm 2 mps 752 mmHg 67%

Tomorrow, 12 August, Wednesday

Time Temperature Precipitation Wind Pressure Humidity
00:00 +24°C° 0.1 mm 2 mps 752 mmHg 69%
01:00 +24°C° 0.1 mm 2 mps 752 mmHg 71%
02:00 +23°C° 0.1 mm 1 mps 752 mmHg 73%
03:00 +23°C° 0.1 mm 1 mps 752 mmHg 75%
04:00 +23°C° 0 mm 1 mps 751 mmHg 75%
05:00 +23°C° 0 mm 1 mps 751 mmHg 75%
06:00 +23°C° 0 mm 1 mps 751 mmHg 75%
07:00 +25°C° 0 mm 1 mps 752 mmHg 69%
08:00 +27°C° 0 mm 2 mps 752 mmHg 64%
09:00 +28°C° 0 mm 2 mps 752 mmHg 58%
10:00 +30°C° 0 mm 2 mps 752 mmHg 54%
11:00 +31°C° 0 mm 3 mps 752 mmHg 49%
12:00 +33°C° 0 mm 3 mps 752 mmHg 45%
13:00 +34°C° 0 mm 3 mps 752 mmHg 43%
14:00 +34°C° 0 mm 3 mps 751 mmHg 42%
15:00 +35°C° 0 mm 3 mps 751 mmHg 41%
16:00 +33°C° 0.2 mm 3 mps 751 mmHg 47%
17:00 +31°C° 0.2 mm 3 mps 751 mmHg 53%
18:00 +30°C° 0.2 mm 3 mps 750 mmHg 60%
19:00 +28°C° 0.8 mm 2 mps 750 mmHg 67%
20:00 +26°C° 0.8 mm 2 mps 751 mmHg 74%
21:00 +24°C° 0.8 mm 1 mps 751 mmHg 81%
22:00 +24°C° 0.3 mm 1 mps 751 mmHg 82%
23:00 +23°C° 0.3 mm 1 mps 751 mmHg 83%

Day after tomorrow, 13 August, Thursday

Time Temperature Precipitation Wind Pressure Humidity
00:00 +23°C° 0.3 mm 1 mps 751 mmHg 84%
01:00 +23°C° 0 mm 1 mps 751 mmHg 85%
02:00 +23°C° 0 mm 1 mps 750 mmHg 85%
03:00 +22°C° 0 mm 1 mps 750 mmHg 86%
04:00 +22°C° 0 mm 1 mps 750 mmHg 86%
05:00 +22°C° 0 mm 1 mps 750 mmHg 86%
06:00 +21°C° 0 mm 2 mps 750 mmHg 87%
07:00 +23°C° 0 mm 2 mps 750 mmHg 81%
08:00 +25°C° 0 mm 1 mps 751 mmHg 76%
09:00 +26°C° 0 mm 1 mps 751 mmHg 71%
10:00 +27°C° 0 mm 1 mps 751 mmHg 66%
11:00 +28°C° 0 mm 1 mps 751 mmHg 62%
12:00 +29°C° 0 mm 1 mps 751 mmHg 57%
13:00 +30°C° 0 mm 1 mps 750 mmHg 56%
14:00 +30°C° 0 mm 2 mps 750 mmHg 54%
15:00 +30°C° 0 mm 2 mps 750 mmHg 52%
16:00 +29°C° 1 mm 2 mps 750 mmHg 58%
17:00 +29°C° 1 mm 2 mps 750 mmHg 64%
18:00 +28°C° 1 mm 3 mps 749 mmHg 69%
19:00 +26°C° 1.7 mm 3 mps 750 mmHg 76%
20:00 +24°C° 1.7 mm 3 mps 750 mmHg 83%
21:00 +22°C° 1.7 mm 3 mps 750 mmHg 90%
22:00 +21°C° 0.9 mm 3 mps 750 mmHg 91%
23:00 +20°C° 0.9 mm 3 mps 750 mmHg 92%

14 August, Friday

Time Temperature Precipitation Wind Pressure Humidity
00:00 +20°C° 0.9 mm 3 mps 750 mmHg 93%
01:00 +20°C° 0.1 mm 2 mps 750 mmHg 94%
02:00 +20°C° 0.1 mm 2 mps 750 mmHg 94%
03:00 +19°C° 0.1 mm 2 mps 750 mmHg 94%
04:00 +19°C° 0.1 mm 2 mps 750 mmHg 93%
05:00 +20°C° 0.1 mm 2 mps 750 mmHg 93%
06:00 +20°C° 0.1 mm 2 mps 750 mmHg 93%
07:00 +20°C° 0.1 mm 2 mps 750 mmHg 91%
08:00 +20°C° 0.1 mm 2 mps 751 mmHg 90%
09:00 +21°C° 0.1 mm 2 mps 751 mmHg 89%
10:00 +21°C° 0.1 mm 3 mps 751 mmHg 88%
11:00 +21°C° 0.1 mm 3 mps 751 mmHg 87%
12:00 +21°C° 0.1 mm 3 mps 752 mmHg 87%
13:00 +21°C° 0 mm 3 mps 752 mmHg 86%
14:00 +22°C° 0 mm 3 mps 752 mmHg 84%
15:00 +22°C° 0 mm 3 mps 752 mmHg 83%
16:00 +22°C° 0 mm 3 mps 752 mmHg 83%
17:00 +22°C° 0 mm 3 mps 752 mmHg 83%
18:00 +22°C° 0 mm 3 mps 752 mmHg 84%
19:00 +22°C° 0 mm 3 mps 752 mmHg 85%
20:00 +21°C° 0 mm 3 mps 753 mmHg 87%
21:00 +21°C° 0 mm 3 mps 753 mmHg 89%
22:00 +20°C° 0 mm 3 mps 753 mmHg 91%
23:00 +20°C° 0 mm 2 mps 753 mmHg 93%

15 August, Saturday

Time Temperature Precipitation Wind Pressure Humidity
00:00 +19°C° 0 mm 2 mps 753 mmHg 95%
01:00 +19°C° 0 mm 2 mps 753 mmHg 94%
02:00 +19°C° 0 mm 2 mps 753 mmHg 93%
03:00 +19°C° 0 mm 2 mps 752 mmHg 93%
04:00 +19°C° 0 mm 2 mps 752 mmHg 93%
05:00 +19°C° 0 mm 2 mps 752 mmHg 92%
06:00 +19°C° 0 mm 2 mps 752 mmHg 92%
07:00 +19°C° 0 mm 2 mps 752 mmHg 91%
08:00 +20°C° 0 mm 2 mps 752 mmHg 90%
09:00 +20°C° 0 mm 2 mps 752 mmHg 89%
10:00 +20°C° 0 mm 2 mps 752 mmHg 87%
11:00 +21°C° 0 mm 2 mps 752 mmHg 84%
12:00 +21°C° 0 mm 2 mps 752 mmHg 82%
13:00 +21°C° 0 mm 2 mps 752 mmHg 81%
14:00 +23°C° 0 mm 2 mps 752 mmHg 79%
15:00 +23°C° 0 mm 2 mps 752 mmHg 78%
16:00 +23°C° 0 mm 2 mps 752 mmHg 78%
17:00 +23°C° 0 mm 1 mps 752 mmHg 79%
18:00 +23°C° 0 mm 1 mps 751 mmHg 79%
19:00 +22°C° 0 mm 1 mps 751 mmHg 82%
20:00 +21°C° 0 mm 1 mps 751 mmHg 86%
21:00 +18°C° 0 mm 0 mps 752 mmHg 89%
22:00 +18°C° 0 mm 0 mps 751 mmHg 89%
23:00 +18°C° 0 mm 0 mps 751 mmHg 90%

16 August, Sunday

Time Temperature Precipitation Wind Pressure Humidity
00:00 +17°C° 0 mm 0 mps 751 mmHg 91%
01:00 +17°C° 0 mm 0 mps 751 mmHg 91%
02:00 +17°C° 0 mm 0 mps 751 mmHg 92%
03:00 +19°C° 0 mm 1 mps 751 mmHg 92%
04:00 +19°C° 0 mm 1 mps 751 mmHg 92%
05:00 +19°C° 0 mm 1 mps 751 mmHg 92%
06:00 +20°C° 0 mm 1 mps 751 mmHg 92%
07:00 +21°C° 0 mm 1 mps 751 mmHg 85%
08:00 +23°C° 0 mm 2 mps 751 mmHg 77%
09:00 +24°C° 0 mm 2 mps 751 mmHg 70%
10:00 +25°C° 0.1 mm 3 mps 751 mmHg 65%
11:00 +26°C° 0.1 mm 3 mps 751 mmHg 61%
12:00 +28°C° 0.1 mm 4 mps 751 mmHg 57%
13:00 +27°C° 1 mm 4 mps 750 mmHg 59%
14:00 +27°C° 1 mm 5 mps 750 mmHg 61%
15:00 +27°C° 1 mm 5 mps 750 mmHg 62%
16:00 +25°C° 0.4 mm 5 mps 750 mmHg 68%
17:00 +23°C° 0.4 mm 5 mps 750 mmHg 73%
18:00 +22°C° 0.4 mm 5 mps 750 mmHg 78%
19:00 +21°C° 0 mm 4 mps 750 mmHg 81%
20:00 +19°C° 0 mm 4 mps 751 mmHg 84%
21:00 +18°C° 0 mm 4 mps 751 mmHg 86%
22:00 +17°C° 0 mm 4 mps 751 mmHg 88%
23:00 +17°C° 0 mm 3 mps 751 mmHg 90%
Show more